Simultaneous Nadir Overpasses (SNOs) Predictions

Prediction of SNOs between FY3D and LANDSAT-8 Satellite Orbit:

Table of predicted SNOs for the next 14.0 days since TLE Epoch: 1/13/2024
Index Date (FY3D) Time (FY3D) Lat,Lon (FY3D) SZA (FY3D ) Date (LANDSAT-8) Time (LANDSAT-8) Lat,Lon (LANDSAT-8) SZA (LANDSAT-8 ) Distance(km) Time Diff (sec)
1 01/14/2024 13:07:19 -73.84, 165.65 84.92 01/14/2024 13:08:12 -73.83, 165.69 84.93 2.07 53
2 01/14/2024 13:58:03 73.73, -26.76 94.97 01/14/2024 13:57:39 73.74, -26.85 94.98 3.31 24
3 01/17/2024 04:34:14 73.86, 113.94 94.61 01/17/2024 04:35:12 73.83, 113.94 94.58 3.26 58
4 01/17/2024 05:24:57 -73.77, -78.52 85.49 01/17/2024 05:24:41 -73.76, -78.57 85.49 1.45 16
5 01/19/2024 20:01:08 -73.85, 62.28 85.93 01/19/2024 20:02:14 -73.87, 62.26 85.92 2.28 66
6 01/19/2024 20:51:53 73.80,-130.28 94.01 01/19/2024 20:51:41 73.78,-130.29 93.99 1.91 12
7 01/19/2024 21:42:27 -73.25, 38.31 86.54 01/19/2024 21:41:18 -73.30, 36.32 86.50 63.79 69
8 01/22/2024 11:28:04 73.89, 10.49 93.54 01/22/2024 11:29:13 73.90, 10.59 93.54 3.19 69
9 01/22/2024 12:18:47 -73.79, 178.05 86.58 01/22/2024 12:18:43 -73.79, 177.97 86.59 2.64 4
10 01/22/2024 13:09:25 73.40, -13.70 93.02 01/22/2024 13:08:15 73.43, -15.15 93.06 46.15 70
11 01/25/2024 02:55:02 -74.09, -41.68 86.89 01/25/2024 02:56:13 -73.98, -40.99 87.00 24.18 71
12 01/25/2024 03:45:43 73.85, 126.22 92.86 01/25/2024 03:45:41 73.84, 126.33 92.85 3.64 2



Historial Predications of SNOs between FY3D and LANDSAT-8
